Location: Ravensburg
(47.7866°N, 9.6124°E)
Time: 10:46:32
(UTC+02:00)

STARS - Pass Details

Date: 18 March 2026
Orbit: 575 x 588 km, 98.2° (Epoch: 18 April)

Event Time Altitude Azimuth Distance (km) Brightness Sun altitude
Rises 03:31:29 0° 2° (N) 2,800 ? -29.0°
Reaches altitude 10° 03:33:58 10° 348° (NNW) 1,896 ? -28.6°
Enters shadow 03:34:26 12° 344° (NNW) 1,745 ? -28.6°
